Flag for Austria Weather past 2 weeks in Judenburg, Styria, Austria

Now
43 °F

Passing clouds.


Feels Like: 38 °F
Forecast: 26 / 53 °F
Wind: 8 mph from Northwest

Location: Zeltweg

Current Time: Apr 18, 2015 at 7:54:30 PM

Latest Report: Apr 18, 2015 at 6:50 PM


Visibility: 19 mi

Pressure: 30.12 "Hg

Humidity: 53%

Dew point: 27 °F

Location of JudenburgLocation

Historic Weather in Judenburg — Graph

°F

Judenburg temperature yesterday

Maximum temperature yesterday: 63 °F (at 11:20 AM)
Minimum temperature yesterday: 41 °F (at 5:50 AM)
Average temperature yesterday: 53 °F

Past Weeks' High & Low Weather Summary

 TemperatureHumidityPressure
High73 °F (Apr 16, 1:50 PM)100% (Apr 4, 7:50 AM)30.45 "Hg (Apr 4, 7:50 AM)
Low21 °F (Apr 7, 6:50 AM)14% (Apr 16, 5:50 PM)29.80 "Hg (Apr 4, 4:50 PM)
Average49 °F58%30.20 "Hg
* Reported Apr 3 6:50 PM — Apr 18 6:50 PM, Judenburg, Weather by CustomWeather, © 2015

Note: Actual official high and low records may vary slightly from our data, if they occured in-between our weather recording intervals... More about our weather records

Advertising

Judenburg weather history for previous 24 hours

 ConditionsComfort  
Time TempWeatherWind HumidityBarometerVisibility
6:50 PM
Sat, Apr 18
43 °FPassing clouds.8 mph53%30.12 "Hg19 mi
5:50 PM43 °FPassing clouds.13 mph49%30.12 "Hg16 mi
4:50 PM46 °FScattered clouds.15 mph50%30.12 "Hg19 mi
3:50 PM45 °FBroken clouds.10 mph46%30.12 "Hg16 mi
2:50 PM46 °FBroken clouds.13 mph50%30.09 "Hg16 mi
1:50 PM46 °FBroken clouds.8 mph46%30.09 "Hg19 mi
12:50 PM45 °FPartly sunny.14 mph53%30.09 "Hg16 mi
11:50 AM43 °FPartly sunny.13 mph57%30.07 "Hg16 mi
10:50 AM45 °FPartly sunny.12 mph57%30.07 "Hg16 mi
9:50 AM45 °FBroken clouds.8 mph57%30.04 "Hg16 mi
8:50 AM43 °FBroken clouds.12 mph66%30.01 "Hg16 mi
7:50 AM43 °FBroken clouds.10 mph71%29.98 "Hg16 mi
6:50 AM43 °FPartly cloudy.6 mph81%29.98 "Hg9 mi
5:50 AM43 °FMostly cloudy.5 mph81%29.95 "Hg9 mi
4:50 AM45 °FMostly cloudy.3 mph81%29.92 "Hg9 mi
10:50 PM
Fri, Apr 17
48 °FMostly cloudy.1 mph100%29.89 "Hg9 mi
9:50 PM50 °FLight rain. Overcast.5 mph88%29.86 "Hg9 mi
8:50 PM50 °FMore clouds than sun.5 mph100%29.86 "Hg9 mi
7:50 PM50 °FMore clouds than sun.7 mph100%29.83 "Hg9 mi
Weather by CustomWeather, © 2015

See weather overviewHow to use our weather pages